Theta_e
326 326 326 327 327 328 329 329 329 328 328 327 327 325 324 324 323 313 306 313 314 326 321 310 310 308 308 306 307 303 294 292 295 295 295 299 298 299 303 303 305 311 313 324 328
321 325 326 326 326 327 328 328 328 328 326 327 326 325 324 323 311 306 318 330 330 328 309 306 304 307 303 304 303 298 294 296 298 299 298 299 300 299 300 302 303 320 326 328 329
321 322 324 325 325 326 327 328 327 326 326 325 325 324 323 320 305 304 327 330 331 323 308 308 308 306 301 302 300 299 296 297 299 301 303 299 298 299 299 297 303 317 322 325 324
321 321 323 323 324 325 327 327 327 326 326 324 324 323 322 313 293 310 328 331 330 311 308 305 303 301 298 297 300 296 298 299 301 302 302 299 299 296 298 298 304 323 325 323 323
320 320 322 322 323 324 326 327 326 325 325 324 323 322 315 302 302 313 328 328 318 310 305 303 300 301 296 298 297 296 295 299 300 300 299 301 298 297 297 297 306 324 325 322 322
319 319 320 321 322 323 323 325 325 324 323 324 323 322 307 294 310 315 317 315 312 307 304 303 302 303 298 297 296 296 298 297 299 298 300 298 296 298 299 298 309 319 320 321 321
318 319 319 321 321 322 322 324 325 322 321 321 322 315 303 298 310 313 315 312 311 306 303 305 305 301 299 295 298 297 293 295 296 297 297 297 295 295 298 299 302 309 313 320 322
317 318 319 320 321 321 322 323 323 322 320 318 320 312 299 309 308 309 308 306 307 306 307 308 306 303 300 297 296 294 292 288 293 296 296 296 290 298 298 298 298 301 305 313 318
314 317 319 320 320 320 321 321 321 322 322 320 309 308 297 312 305 308 306 303 304 303 303 306 304 299 298 291 287 289 285 288 290 295 293 292 291 296 295 296 295 297 299 305 310
313 316 318 320 319 320 320 320 320 320 318 312 311 302 302 298 305 307 305 305 301 300 299 299 297 292 291 288 282 284 285 287 288 292 291 290 291 293 294 293 293 292 295 301 304
313 317 318 319 319 321 317 312 304 303 306 298 299 297 299 304 307 303 306 302 301 296 290 294 289 286 289 291 292 290 289 286 289 292 291 290 289 291 293 292 292 292 293 295 302
316 317 319 319 320 319 311 302 301 302 296 302 301 300 303 304 298 301 305 296 295 289 292 290 286 291 294 294 293 290 288 285 289 292 291 289 289 292 292 292 293 294 294 293 295
317 317 318 319 319 313 306 303 308 306 294 298 301 299 299 302 296 297 301 297 292 289 289 287 291 295 293 291 290 288 287 286 287 290 289 287 286 290 293 293 294 295 295 294 295
316 317 318 319 312 309 303 308 309 305 288 291 295 298 301 300 295 302 302 298 293 289 290 289 292 293 291 290 291 286 291 291 289 286 282 285 278 284 289 292 292 294 294 295 294
316 317 318 319 311 304 306 310 309 301 275 292 295 304 301 295 296 296 300 296 291 290 289 287 289 290 289 290 292 289 292 290 288 285 282 281 279 282 286 287 290 292 293 294 295
316 316 318 315 312 310 312 310 303 286 276 287 294 294 294 296 295 296 296 296 295 291 289 288 291 292 291 292 293 292 289 289 286 283 278 282 281 281 285 289 288 291 292 293 294
316 316 316 315 307 312 311 301 284 277 290 286 287 292 291 290 291 292 290 288 286 284 282 286 287 289 292 290 291 290 285 278 277 277 276 281 280 284 287 289 290 291 290 292 294
315 315 315 314 314 313 305 291 277 284 286 291 290 290 287 290 289 289 289 287 288 286 284 281 280 287 290 289 287 287 286 279 274 275 277 281 278 285 289 290 291 290 291 293 294
315 313 312 312 313 310 296 283 281 285 290 289 289 286 285 289 289 288 286 288 289 288 283 282 282 289 290 292 292 287 283 288 280 274 277 279 283 288 290 290 289 291 293 292 293
309 308 308 313 312 304 291 284 286 291 292 291 284 286 283 286 285 286 286 290 288 290 290 287 281 288 289 291 290 288 291 283 281 272 272 277 279 282 286 289 289 290 291 292 292
307 300 308 313 308 296 285 286 289 294 294 289 286 285 286 285 287 286 286 290 292 291 291 288 286 284 288 286 285 286 284 285 285 282 276 274 278 286 289 290 289 290 292 292 292
302 290 309 311 292 291 287 289 294 292 294 292 291 289 287 288 286 286 286 289 294 294 287 290 287 281 283 289 291 288 287 286 281 278 280 280 280 288 288 290 290 290 292 292 292
286 290 307 306 285 286 290 290 292 292 292 291 289 291 291 288 285 288 288 293 294 292 290 291 284 277 281 285 289 286 286 287 286 283 279 276 282 290 289 289 289 289 290 292 291
287 285 288 299 294 290 288 288 287 293 293 293 293 293 290 288 289 287 289 293 294 293 296 295 288 282 279 282 286 284 286 287 287 280 281 281 285 286 288 290 290 290 291 291 292
285 284 285 285 288 291 291 289 287 287 293 294 291 291 289 285 287 287 291 290 292 295 293 292 279 283 282 285 286 285 285 286 285 287 282 286 283 288 287 289 290 291 291 291 291
285 284 285 289 292 290 291 288 288 289 291 290 289 290 290 287 288 286 289 288 288 290 290 291 277 281 276 284 285 284 285 287 287 288 286 285 284 290 290 290 289 292 292 291 292
287 286 287 290 289 288 289 289 289 291 291 294 293 291 290 291 294 294 295 293 292 291 288 288 281 276 271 280 282 276 284 284 286 288 288 283 289 290 288 289 290 291 292 292 293
Wind_Speed
23 23 21 19 17 16 15 18 16 16 11 9 10 8 7 6 3 3 5 5 6 8 4 5 4 3 3 2 2 3 4 2 4 7 6 5 5 3 2 7 6 4 5 12 15
14 23 22 21 18 17 15 15 17 16 15 8 9 9 7 10 2 8 6 11 11 11 5 7 6 6 3 2 0 4 3 3 4 9 8 7 7 7 6 5 5 6 8 15 10
17 11 23 22 20 18 15 14 15 16 15 10 10 10 11 6 3 7 14 11 12 8 5 2 4 3 3 1 2 5 4 4 5 2 12 10 6 4 10 2 7 13 10 7 7
15 12 20 23 22 19 18 17 15 17 16 10 7 8 8 3 8 1 6 15 11 7 5 5 4 9 3 3 3 2 1 2 4 6 7 10 8 5 6 7 11 18 16 8 9
17 16 15 22 21 21 18 19 18 16 17 13 11 8 4 4 6 2 8 11 8 7 8 7 6 5 6 4 2 2 2 4 3 7 7 9 6 6 5 2 12 16 15 14 12
20 17 11 20 21 21 19 20 19 19 17 13 11 9 4 7 3 6 8 9 6 6 6 5 7 5 5 2 5 1 3 2 3 3 5 7 2 4 6 5 11 16 14 14 16
19 18 13 20 21 20 20 21 20 19 19 17 8 3 4 8 4 7 9 6 7 5 7 6 2 4 3 3 3 8 5 2 2 2 3 2 2 4 4 6 11 9 10 13 14
16 17 16 21 22 20 20 20 20 19 20 18 7 4 4 1 2 6 4 4 6 3 2 5 6 4 3 2 3 6 6 3 2 4 1 3 6 7 7 10 9 9 8 10 13
17 20 17 19 23 22 21 21 20 18 18 20 10 4 6 2 4 5 5 8 6 3 3 4 6 4 3 6 3 2 5 3 1 4 3 3 6 2 8 9 9 9 9 9 9
19 22 22 20 23 24 23 21 20 17 13 9 9 7 8 6 5 6 4 8 4 7 5 5 4 4 2 4 6 4 4 3 6 7 4 4 5 2 3 6 9 9 9 9 9
16 26 26 25 25 30 27 16 10 5 11 8 16 4 7 6 4 2 5 6 5 4 6 3 6 6 7 6 5 6 5 4 2 2 4 6 5 9 7 5 8 8 8 9 10
23 29 29 27 29 30 22 14 19 8 11 5 24 3 3 8 4 6 5 7 6 6 7 5 5 8 9 9 8 4 3 3 2 2 3 3 10 9 5 8 9 10 9 9 6
28 26 29 29 34 22 20 16 16 18 8 1 6 5 5 7 6 11 13 6 6 7 7 10 11 10 10 6 6 5 5 5 6 3 1 1 7 6 7 6 6 7 7 8 12
32 29 30 31 22 15 16 14 18 1 5 4 5 6 4 6 5 5 7 7 5 14 10 7 6 14 7 7 7 6 4 7 9 5 4 3 7 5 7 11 8 11 10 9 9
34 34 31 33 15 19 21 8 9 3 8 14 4 3 7 6 13 4 2 4 8 7 8 8 10 9 5 7 5 6 9 8 4 4 3 2 1 9 2 6 9 12 11 9 9
33 33 32 20 11 17 11 12 7 4 7 9 8 10 10 5 4 5 5 3 3 6 5 3 2 5 7 4 8 9 9 8 5 4 2 6 6 7 5 8 6 7 9 9 8
31 32 30 11 14 16 11 7 7 7 9 10 10 16 22 8 8 6 11 9 8 8 6 2 3 2 4 8 4 7 8 3 2 2 6 1 3 9 5 5 7 9 9 9 9
30 31 26 5 18 21 6 13 8 12 16 8 11 15 14 16 2 9 13 11 6 5 6 7 3 5 3 8 9 9 9 8 7 5 5 3 8 7 6 2 2 2 6 8 7
34 17 13 7 22 17 15 17 16 21 12 11 16 20 6 13 10 6 12 21 11 9 8 6 1 1 4 2 11 6 6 6 8 3 4 5 7 9 5 7 2 5 6 9 9
15 14 12 17 26 18 15 15 6 15 13 18 9 12 17 23 9 12 18 17 11 9 3 5 6 2 1 2 0 6 8 4 3 6 4 5 6 7 5 9 7 9 9 7 6
10 11 13 21 19 17 22 14 8 14 18 13 8 11 10 17 12 14 21 3 15 17 7 5 5 2 4 6 9 4 4 3 6 7 6 2 8 8 12 11 11 11 12 12 11
5 7 20 18 17 13 16 9 14 11 13 5 7 6 15 20 9 14 13 8 18 18 10 0 6 5 7 3 2 3 7 7 6 4 2 4 9 0 1 1 9 7 9 6 7
4 1 11 22 12 17 10 5 12 8 19 9 6 6 12 16 8 6 6 7 17 18 17 8 0 5 4 3 3 5 3 6 5 4 7 6 11 3 3 3 1 5 6 8 9
4 5 3 12 3 22 20 19 6 4 7 6 6 7 14 12 1 12 9 2 12 11 11 12 4 10 11 6 8 9 9 7 7 4 6 12 18 4 5 6 4 4 6 9 11
1 1 1 13 13 21 17 19 17 9 7 11 5 13 14 8 8 9 5 4 5 13 6 8 8 4 2 6 6 6 10 11 11 23 11 26 14 13 7 8 8 8 7 8 9
2 3 3 9 18 25 21 26 28 14 14 17 9 9 6 8 11 9 9 4 7 2 6 5 3 5 2 3 4 4 9 19 25 21 14 6 19 8 9 7 7 11 12 12 12
0 1 2 13 13 20 22 28 30 12 2 12 12 10 8 7 9 8 6 5 13 18 7 9 7 5 6 2 6 5 22 9 12 14 21 18 34 5 4 6 9 9 10 13 14
Wind_Direction
218 200 188 189 185 187 181 166 168 164 161 152 156 158 159 183 150 210 216 223 182 162 153 114 55 353 38 328 75 54 62 267 234 160 183 161 114 33 77 98 47 26 159 151 152
243 212 192 185 183 186 185 176 166 153 145 165 151 153 179 166 208 236 240 163 142 156 117 143 138 153 292 242 160 104 116 246 284 154 170 150 126 138 100 105 58 58 50 128 115
216 254 199 186 181 181 182 178 163 153 145 169 153 160 181 156 166 238 180 175 157 163 129 170 93 167 200 89 246 171 192 280 337 83 144 136 133 124 123 157 179 153 150 143 132
211 210 219 190 178 181 177 176 164 151 141 155 155 162 172 204 172 174 197 159 150 149 127 155 164 147 172 163 244 199 162 12 345 357 117 143 135 136 165 204 162 160 154 147 163
203 201 225 193 184 178 178 174 167 152 132 145 152 188 151 223 247 181 119 133 131 140 161 171 147 133 177 194 174 184 194 61 354 26 117 113 131 150 160 194 137 142 150 158 174
208 199 204 199 184 177 181 177 162 151 142 134 164 166 249 206 141 144 130 133 161 152 163 165 172 169 171 225 150 3 90 99 65 27 57 105 68 128 209 143 126 150 159 166 174
211 187 214 200 180 179 174 173 154 153 142 141 157 185 260 219 143 130 137 168 168 178 160 209 125 126 155 125 188 142 88 28 38 98 85 92 41 219 189 156 143 169 170 170 181
253 190 195 193 175 172 165 164 146 146 150 142 124 289 244 22 160 136 160 125 165 197 132 182 119 133 130 146 76 132 95 143 239 141 44 96 241 219 174 145 172 182 193 186 186
271 184 182 188 168 162 158 152 134 144 143 139 122 4 283 298 163 189 125 140 136 100 47 102 91 130 89 121 57 65 158 168 169 206 128 150 240 253 178 162 185 201 205 202 199
244 181 190 171 167 151 137 124 126 128 145 169 116 74 250 214 162 150 180 136 131 117 57 82 81 109 86 101 186 150 154 175 162 215 159 158 255 231 191 172 196 207 213 207 198
223 190 192 172 165 142 124 121 123 128 209 186 169 183 173 123 70 171 150 129 98 86 138 195 113 168 190 171 204 152 184 174 10 324 127 194 237 242 225 217 220 229 219 211 210
202 187 184 171 160 150 141 157 164 144 166 296 168 61 111 113 114 169 119 130 127 162 131 79 176 198 185 184 212 190 158 214 42 328 117 176 250 242 206 222 204 205 224 212 189
185 179 174 172 156 163 164 148 185 134 138 241 191 158 170 112 139 187 153 151 145 165 166 149 190 172 177 203 165 183 169 181 152 188 73 72 293 235 237 219 204 226 212 209 189
177 177 172 169 160 170 165 153 172 210 95 198 188 228 121 142 117 191 194 142 168 187 140 177 202 176 162 194 152 183 180 140 135 121 212 130 270 268 228 227 196 208 213 205 189
177 169 174 170 147 174 161 117 104 61 141 151 197 153 155 151 138 214 183 89 181 169 122 223 160 152 149 175 148 188 141 140 126 103 107 213 109 270 100 227 221 219 222 200 189
174 168 174 177 143 156 136 114 78 107 200 191 151 162 148 181 110 131 151 96 202 136 58 168 300 167 166 123 146 145 85 41 61 85 293 226 163 279 198 209 231 224 218 196 178
171 173 176 157 154 142 149 111 112 188 148 175 179 167 173 161 127 176 169 167 163 135 144 78 28 312 123 89 17 109 97 38 24 333 222 338 210 239 237 201 213 227 216 173 164
171 175 178 158 138 144 154 151 154 186 174 143 150 149 183 144 40 157 148 185 248 141 131 151 187 192 189 150 165 161 157 154 176 200 218 304 233 240 244 206 233 221 152 130 148
165 178 179 172 146 148 156 176 197 168 163 145 130 155 174 181 127 136 182 192 185 182 143 132 121 66 55 89 152 204 185 163 100 19 79 225 287 298 217 245 191 117 137 161 172
171 176 186 160 149 151 167 186 171 161 135 139 154 180 177 179 138 168 176 197 188 182 143 181 117 346 238 139 355 186 152 132 355 129 252 275 258 229 250 244 208 205 192 188 176
168 174 160 153 144 158 188 185 160 172 152 151 149 170 173 173 176 184 182 210 183 190 142 130 107 262 147 210 164 127 179 161 130 155 168 202 257 216 203 207 202 211 195 190 184
182 169 152 159 149 178 185 172 172 179 153 172 120 123 171 172 158 184 186 176 184 175 158 85 115 148 199 220 236 161 182 156 173 230 187 160 253 223 149 201 203 214 191 182 163
75 126 180 160 162 180 150 203 190 147 173 158 140 161 156 171 165 162 168 197 166 171 175 177 131 94 34 347 336 201 188 192 116 75 211 140 252 339 106 58 182 199 169 158 158
151 136 358 170 159 165 163 184 156 133 169 160 135 118 137 171 122 177 160 102 173 174 149 131 152 166 185 182 138 180 188 191 166 124 199 224 237 194 203 170 182 177 170 170 177
55 69 283 169 173 166 168 173 185 165 165 172 153 163 155 150 157 168 142 107 53 156 130 124 193 142 79 132 141 169 179 176 197 223 185 242 257 208 207 205 210 183 174 176 188
132 176 136 151 155 167 173 190 190 185 159 186 147 170 139 142 179 154 120 124 159 45 127 137 229 113 330 214 147 165 198 201 210 217 241 234 274 134 199 202 162 191 183 194 196
354 86 284 158 157 166 190 180 193 158 163 179 150 142 167 163 121 153 139 128 165 165 139 151 139 101 226 147 91 331 220 176 220 217 216 225 240 133 195 186 211 209 199 204 206